| time (UTC) | temp F | wind direction | speed knots | gust knots | rain 1hr in | rain 24hr in | rain mn in | humidity % | barometer mb |
| 20260508104732 | 47 | 221 | 12.2 | 13.9 | 0.00 | 0.00 | 0.00 | 62 | 1027.1 |
| 20260508102732 | 46 | 219 | 12.2 | 13.0 | 0.00 | 0.00 | 0.00 | 69 | 1027.2 |
| 20260508094732 | 46 | 232 | 12.2 | 14.8 | 0.00 | 0.00 | 0.00 | 63 | 1027.2 |
| 20260508092732 | 48 | 233 | 9.6 | 10.4 | 0.00 | 0.00 | 0.00 | 63 | 1027.1 |
| 20260508090732 | 46 | 230 | 8.7 | 9.6 | 0.00 | 0.00 | 0.00 | 66 | 1027.2 |
| 20260508084732 | 47 | 235 | 8.7 | 9.6 | 0.00 | 0.00 | 0.00 | 62 | 1027.2 |
| 20260508082731 | 46 | 241 | 8.7 | 9.6 | 0.00 | 0.00 | 0.00 | 69 | 1027.2 |
| 20260508080732 | 47 | 246 | 8.7 | 9.6 | 0.00 | 0.00 | 0.00 | 68 | 1027.2 |
| 20260508074732 | 47 | 209 | 6.1 | 8.7 | 0.00 | 0.00 | 0.00 | 53 | 1027.1 |
| 20260508072731 | 48 | 175 | 3.5 | 5.2 | 0.00 | 0.00 | 0.00 | 48 | 1026.7 |
| 20260508070732 | 49 | 132 | 3.5 | 5.2 | 0.00 | 0.00 | 0.00 | 44 | 1026.6 |
| 20260508064731 | 48 | 115 | 3.5 | 6.1 | 0.00 | 0.00 | 0.00 | 51 | 1026.5 |
| 20260508062731 | 48 | 44 | 6.1 | 9.6 | 0.00 | 0.00 | 0.00 | 53 | 1026.2 |
| 20260508054732 | 46 | 50 | 5.2 | 7.8 | 0.00 | 0.00 | 0.00 | 59 | 1025.8 |
| 20260508052732 | 44 | 27 | 6.1 | 7.8 | 0.00 | 0.00 | 0.00 | 60 | 1025.7 |
| 20260508050731 | 45 | 16 | 6.1 | 8.7 | 0.00 | 0.00 | 0.00 | 61 | 1025.5 |
| 20260508044732 | 43 | 8 | 7.0 | 9.6 | 0.00 | 0.00 | 0.00 | 65 | 1025.3 |
| 20260508042731 | 42 | 4 | 7.8 | 11.3 | 0.00 | 0.00 | 0.00 | 67 | 1025.1 |
| 20260508040731 | 42 | 4 | 7.0 | 9.6 | 0.00 | 0.00 | 0.00 | 66 | 1024.9 |
| 20260508034731 | 41 | 1 | 7.8 | 10.4 | 0.00 | 0.00 | 0.00 | 67 | 1024.7 |
| 20260508032731 | 40 | 357 | 9.6 | 12.2 | 0.00 | 0.00 | 0.00 | 66 | 1024.5 |
| 20260508030731 | 39 | 353 | 9.6 | 11.3 | 0.00 | 0.00 | 0.00 | 71 | 1024.4 |
| 20260508024730 | 39 | 1 | 8.7 | 10.4 | 0.00 | 0.00 | 0.00 | 72 | 1024.1 |
| 20260508022730 | 39 | 356 | 10.4 | 12.2 | 0.00 | 0.00 | 0.00 | 71 | 1023.8 |
| 20260508020731 | 39 | 360 | 10.4 | 13.0 | 0.00 | 0.00 | 0.00 | 72 | 1023.5 |
| 20260508014730 | 39 | 7 | 7.8 | 10.4 | 0.00 | 0.00 | 0.00 | 75 | 1023.3 |
| 20260508012730 | 39 | 351 | 9.6 | 11.3 | 0.00 | 0.00 | 0.00 | 75 | 1023.1 |
| 20260508010731 | 40 | 353 | 8.7 | 11.3 | 0.00 | 0.00 | 0.00 | 71 | 1022.4 |
| 20260508004731 | 40 | 346 | 10.4 | 13.0 | 0.00 | 0.00 | 0.00 | 72 | 1022.7 |
| 20260508002731 | 40 | 353 | 8.7 | 11.3 | 0.00 | 0.00 | 0.00 | 71 | 1022.4 |
| 20260508000731 | 40 | 358 | 7.8 | 10.4 | 0.00 | 0.00 | 0.00 | 70 | 1022.1 |
| 20260507234731 | 41 | 351 | 7.8 | 10.4 | 0.00 | 0.00 | 0.00 | 66 | 1022.0 |
| 20260507232730 | 42 | 342 | 10.4 | 13.0 | 0.00 | 0.00 | 0.00 | 64 | 1021.7 |
| 20260507230731 | 42 | 338 | 9.6 | 11.3 | 0.00 | 0.00 | 0.00 | 63 | 1021.5 |
| 20260507224729 | 42 | 343 | 9.6 | 12.2 | 0.00 | 0.00 | 0.00 | 60 | 1021.2 |
| 20260507222730 | 43 | 345 | 9.6 | 12.2 | 0.00 | 0.00 | 0.00 | 60 | 1021.1 |
| 20260507220730 | 44 | 344 | 9.6 | 13.0 | 0.00 | 0.00 | 0.00 | 56 | 1020.9 |
| 20260507214730 | 44 | 342 | 10.4 | 13.9 | 0.00 | 0.00 | 0.00 | 53 | 1020.6 |
| 20260507212729 | 45 | 336 | 10.4 | 13.9 | 0.00 | 0.00 | 0.00 | 51 | 1020.3 |
| 20260507204730 | 45 | 334 | 11.3 | 13.9 | 0.00 | 0.00 | 0.00 | 51 | 1019.7 |
| 20260507202729 | 45 | 336 | 11.3 | 13.9 | 0.00 | 0.00 | 0.00 | 55 | 1019.5 |
| 20260507200731 | 46 | 328 | 12.2 | 15.6 | 0.00 | 0.00 | 0.00 | 49 | 1019.3 |
| 20260507194729 | 47 | 321 | 13.0 | 16.5 | 0.00 | 0.00 | 0.00 | 46 | 1019.0 |
| 20260507192729 | 47 | 318 | 14.8 | 16.5 | 0.00 | 0.00 | 0.00 | 50 | 1018.6 |
| 20260507190729 | 47 | 317 | 13.0 | 15.6 | 0.00 | 0.00 | 0.00 | 51 | 1018.3 |
| 20260507184729 | 47 | 314 | 13.9 | 17.4 | 0.00 | 0.00 | 0.00 | 53 | 1018.1 |
| 20260507182728 | 47 | 311 | 14.8 | 17.4 | 0.00 | 0.00 | 0.00 | 51 | 1017.9 |
| 20260507180728 | 47 | 308 | 17.4 | 20.9 | 0.00 | 0.00 | 0.00 | 52 | 1017.7 |
| 20260507174729 | 48 | 299 | 19.1 | 21.7 | 0.00 | 0.00 | 0.00 | 44 | 1017.6 |
| 20260507172728 | 49 | 299 | 20.0 | 22.6 | 0.00 | 0.00 | 0.00 | 43 | 1017.5 |
| 20260507170728 | 49 | 303 | 17.4 | 21.7 | 0.00 | 0.00 | 0.00 | 45 | 1017.4 |
| 20260507164729 | 48 | 280 | 20.0 | 22.6 | 0.00 | 0.00 | 0.00 | 57 | 1017.4 |
| 20260507162729 | 47 | 261 | 17.4 | 18.2 | 0.00 | 0.00 | 0.00 | 65 | 1017.2 |
| 20260507160729 | 48 | 253 | 16.5 | 17.4 | 0.00 | 0.00 | 0.00 | 63 | 1017.2 |
| 20260507154728 | 49 | 256 | 16.5 | 17.4 | 0.00 | 0.00 | 0.00 | 59 | 1017.0 |
| 20260507152728 | 49 | 265 | 18.2 | 18.2 | 0.00 | 0.00 | 0.00 | 59 | 1017.1 |
| 20260507150730 | 51 | 267 | 18.2 | 19.1 | 0.00 | 0.00 | 0.00 | 46 | 1017.1 |
| 20260507144729 | 52 | 269 | 16.5 | 17.4 | 0.00 | 0.00 | 0.00 | 42 | 1017.0 |
| 20260507142729 | 52 | 270 | 14.8 | 16.5 | 0.00 | 0.00 | 0.00 | 47 | 1016.9 |
| 20260507140728 | 51 | 273 | 15.6 | 16.5 | 0.00 | 0.00 | 0.00 | 52 | 1016.9 |
| 20260507134729 | 50 | 273 | 13.9 | 15.6 | 0.00 | 0.00 | 0.00 | 56 | 1016.9 |
| 20260507132728 | 50 | 270 | 13.0 | 14.8 | 0.00 | 0.00 | 0.00 | 52 | 1016.8 |
| 20260507130728 | 51 | 266 | 13.0 | 13.9 | 0.00 | 0.00 | 0.00 | 48 | 1016.7 |
| 20260507124727 | 49 | 263 | 12.2 | 13.9 | 0.00 | 0.00 | 0.00 | 48 | 1016.7 |
| 20260507122727 | 50 | 259 | 10.4 | 15.6 | 0.00 | 0.00 | 0.00 | 54 | 1016.6 |
| 20260507120728 | 49 | 233 | 6.1 | 6.1 | 0.00 | 0.00 | 0.00 | 53 | 1016.6 |
| 20260507114728 | 48 | 223 | 5.2 | 5.2 | 0.00 | 0.00 | 0.00 | 49 | 1016.6 |
| 20260507112727 | 49 | 216 | 5.2 | 5.2 | 0.00 | 0.00 | 0.00 | 49 | 1016.6 |
| 20260507110727 | 49 | 195 | 4.3 | 5.2 | 0.00 | 0.00 | 0.00 | 44 | 1016.5 |